Location: Petruro
(41.0333°N, 14.7833°E)
Time: 10:04:37
(UTC+00:00)

Cosmos 1656 Rocket - Pass Details

Date: 20 June 2021
Orbit: 794 x 847 km, 71.1° (Epoch: 03 August)

Event Time Altitude Azimuth Distance (km) Brightness Sun altitude
Rises 00:19:57 0° 335° (NNW) 3,417 7.5 -23.1°
Reaches altitude 10° 00:22:25 10° 336° (NNW) 2,478 6.7 -22.9°
Maximum altitude 00:28:07 86° 249° (WSW) 852 3.6 -22.5°
Enters shadow 00:30:10 42° 162° (SSE) 1,192 4.1 -22.4°
